{"data":{"norad_id":55498,"intl_designator":"2023-015BB","name":"STARLINK-5365","alt_names":[],"object_type":"PAYLOAD","status":"ACTIVE","operator":null,"country":"US","launch_date":"2023-02-02","launch_site_code":"AFETR","launch_vehicle":null,"mission":null,"orbit_class":"UNKNOWN","rcs_meters":null,"size_class":null,"mass_kg":null,"dimensions":null,"purposes":["comms"],"wikipedia_slug":null,"has_3d_model":false,"image_url":null,"decayed_at":null,"tle_current":{"epoch":"2026-09-20T14:49:19.525440Z","epoch_age_seconds":90247,"freshness":"FRESH","line1":"1 55498U 23015BB  26263.61758710  .00000313  00000+0  20927-4 0  9996","line2":"2 55498  43.0052 319.1574 0002007 285.1761  74.8869 15.27576674200404","mean_motion":15.27576674,"eccentricity":0.0002007,"inclination_deg":43.0052,"raan_deg":319.1574,"arg_perigee_deg":285.1761,"mean_anomaly_deg":74.8869,"bstar":2.0927e-5,"rev_number":20040,"period_min":94.266953961095,"perigee_km":481.68201324995,"apogee_km":484.43609734654,"semimajor_km":6861.1960552982,"source":"CELESTRAK","updated_at":"2026-09-21T09:00:33.260684Z"}}}